User: anonymous   Login
Location: Nickerson Gardens
(33.9320°N, 118.2484°W)
Time: 12:51:59
(UTC+00:00)
Language:

Aureole 3 - Orbit

View from above orbital plane
View from above orbital plane
View from above satellite
View from above satellite

Ground track
Ground track

The orbit data is extracted from the following two-line orbital elements,

1 12848U 81094A   21017.11366008  .00001174  00000-0  67825-4 0  9996
2 12848  82.4802 232.0397 0591180 173.5065 187.4246 14.25586335976035
Epoch (UTC): 17 January 2021 02:43:40
Eccentricity: 0.0591180
inclination: 82.4802°
perigee height: 382 km
apogee height: 1231 km
right ascension of ascending node: 232.0397°
argument of perigee: 173.5065°
revolutions per day: 14.25586335
mean anomaly at epoch: 187.4246°
orbit number at epoch: 97603

The dashed part of the orbit path shows where the satellite is in the earth's shadow,  

DLR